Change the Weather History Date:

Tuesday, May 21, 2013

  Actual Average Record
Temperature  
Mean Temperature 75 °F -  
Max Temperature 84 °F 81 °F 93 °F (2004)
Min Temperature 66 °F 59 °F 43 °F (1954)
Cooling Degree Days 10    
Growing Degree Days 25 (Base 50)    
Moisture  
Dew Point 69 °F    
Average Humidity 86    
Maximum Humidity 100    
Minimum Humidity 61    
Precipitation  
Precipitation 0.16 in - - ()
Sea Level Pressure  
Sea Level Pressure 30.02 in    
Wind  
Wind Speed 5 mph (SSW)    
Max Wind Speed 10 mph    
Max Gust Speed 16 mph    
Visibility 5 miles    
Events Fog , Rain , Thunderstorm    
Averages and records for this station are not official NWS values.
T = Trace of Precipitation, MM = Missing Value Source: NWS Daily Summary

Daily Weather History Graph

Daily Weather History Graph

Search for Another Location

Airport or City:

Trip Planner

Search our weather history database for the weather conditions in past years. The results will help you decide how hot, cold, wet, or windy it might be!

Date:

Astronomy

May. 21, 2013 Rise Set
Actual Time 6:16 AM EDT 8:25 PM EDT
Civil Twilight 5:47 AM EDT 8:54 PM EDT
Nautical Twilight 5:13 AM EDT 9:29 PM EDT
Astronomical Twilight 4:35 AM EDT 10:06 PM EDT
Moon 4:45 PM EDT (5/21) 3:34 AM EDT (5/21)
Length of Visible Light 15h 06m
Length of Day
14h 09m
Waxing Gibbous, 84% of the Moon is Illuminated
May 21
Waxing Gibbous
May 25
Full
May 31
Last Quarter
Jun 8
New
Jun 16
First Quarter

Hourly Weather History & Observations

Time (EDT) Temp. Heat Index Dew Point Humidity Pressure Visibility Wind Dir Wind Speed Gust Speed Precip Events Conditions
12:54 AM 69.1 °F - 66.9 °F 93% 30.01 in 7.0 mi SSW 4.6 mph - N/A   Clear
1:54 AM 66.9 °F - 66.9 °F 100% 30.00 in 5.0 mi SSW 3.5 mph - N/A   Clear
2:54 AM 66.0 °F - 66.0 °F 100% 30.00 in 4.0 mi SSW 4.6 mph - N/A   Scattered Clouds
3:54 AM 66.0 °F - 66.0 °F 100% 29.99 in 3.0 mi SSW 4.6 mph - N/A   Overcast
4:54 AM 66.9 °F - 66.9 °F 100% 30.00 in 3.0 mi SW 8.1 mph - N/A   Mostly Cloudy
5:09 AM 66.9 °F - 66.9 °F 100% 30.03 in 3.0 mi SW 6.9 mph - N/A   Overcast
5:17 AM 66.0 °F - 66.0 °F 100% 30.03 in 2.0 mi SW 6.9 mph - N/A   Overcast
5:26 AM 66.9 °F - 66.9 °F 100% 30.03 in 1.2 mi SW 6.9 mph - N/A   Overcast
5:54 AM 66.9 °F - 66.9 °F 100% 30.00 in 1.0 mi SW 8.1 mph - N/A   Mist
6:05 AM 66.0 °F - 66.0 °F 100% 30.03 in 0.5 mi SW 6.9 mph - N/A Fog Fog
6:54 AM 66.9 °F - 66.9 °F 100% 30.02 in 0.2 mi SSW 6.9 mph - N/A Fog Fog
7:54 AM 68.0 °F - 68.0 °F 100% 30.03 in 0.2 mi SW 4.6 mph - N/A Fog Fog
8:24 AM 68.0 °F - 68.0 °F 100% 30.07 in 0.8 mi SSW 5.8 mph - N/A   Overcast
8:45 AM 69.1 °F - 69.1 °F 100% 30.07 in 1.2 mi South 3.5 mph - N/A   Overcast
8:54 AM 69.1 °F - 69.1 °F 100% 30.04 in 2.0 mi SSE 3.5 mph - N/A   Overcast
9:17 AM 69.1 °F - 69.1 °F 100% 30.07 in 3.0 mi SSW 4.6 mph - N/A   Overcast
9:50 AM 71.6 °F - 69.8 °F 94% 30.07 in 4.0 mi SSW 4.6 mph - N/A   Overcast
9:54 AM 72.0 °F - 69.1 °F 91% 30.04 in 5.0 mi SSW 4.6 mph - N/A   Overcast
10:26 AM 75.0 °F - 70.0 °F 84% 30.07 in 6.0 mi SSW 3.5 mph - N/A   Haze
10:54 AM 77.0 °F - 70.0 °F 79% 30.04 in 7.0 mi Calm Calm - N/A   Clear
11:22 AM 79.0 °F - 70.0 °F 74% 30.07 in 7.0 mi SSW 3.5 mph - N/A   Mostly Cloudy
11:50 AM 80.6 °F 83.9 °F 69.8 °F 70% 30.06 in 7.0 mi SSW 5.8 mph - N/A   Mostly Cloudy
11:54 AM 81.0 °F 84.9 °F 71.1 °F 72% 30.03 in 7.0 mi Calm Calm - N/A   Mostly Cloudy
12:50 PM 80.6 °F 83.9 °F 69.8 °F 70% 30.04 in 7.0 mi Variable 3.5 mph - N/A Thunderstorm Partly Cloudy
12:54 PM 82.0 °F 85.9 °F 70.0 °F 67% 30.01 in 8.0 mi Variable 3.5 mph - N/A Thunderstorm Partly Cloudy
1:23 PM 84.0 °F 87.8 °F 69.1 °F 61% 30.03 in 8.0 mi SSW 5.8 mph - N/A Thunderstorm Thunderstorm
1:38 PM 82.9 °F 87.5 °F 71.1 °F 67% 30.03 in 7.0 mi South 10.4 mph 16.1 mph N/A Thunderstorm Scattered Clouds
1:47 PM 82.9 °F 87.5 °F 71.1 °F 67% 30.03 in 7.0 mi Variable 6.9 mph 16.1 mph N/A   Mostly Cloudy
1:54 PM 84.0 °F 89.0 °F 71.1 °F 65% 29.99 in 7.0 mi SSW 8.1 mph - N/A   Scattered Clouds
2:24 PM 79.0 °F - 70.0 °F 74% 30.02 in 1.8 mi NW 10.4 mph - 0.04 in Rain Heavy Rain
2:37 PM 77.0 °F - 70.0 °F 79% 30.02 in 2.0 mi West 4.6 mph - 0.08 in Rain , Thunderstorm Rain
2:43 PM 77.0 °F - 72.0 °F 84% 30.01 in 1.2 mi SW 5.8 mph - 0.13 in Rain , Thunderstorm Heavy Thunderstorms and Rain
2:54 PM 77.0 °F - 73.9 °F 90% 29.98 in 2.5 mi SSW 4.6 mph - 0.15 in Rain , Thunderstorm Light Thunderstorms and Rain
3:01 PM 75.9 °F - 73.0 °F 91% 30.02 in 5.0 mi NW 9.2 mph - 0.00 in Rain , Thunderstorm Light Thunderstorms and Rain
3:42 PM 72.0 °F - 66.9 °F 84% 30.00 in 9.0 mi NW 3.5 mph - 0.01 in Thunderstorm Overcast
3:54 PM 73.9 °F - 68.0 °F 82% 29.95 in 8.0 mi SSW 5.8 mph - 0.01 in   Overcast
4:24 PM 78.1 °F - 71.1 °F 79% 29.99 in 8.0 mi ESE 4.6 mph - 0.00 in Thunderstorm Mostly Cloudy
4:39 PM 79.0 °F - 71.1 °F 77% 30.01 in 9.0 mi Variable 6.9 mph - 0.00 in   Mostly Cloudy
4:54 PM 75.9 °F - 69.1 °F 79% 29.98 in 7.0 mi ESE 9.2 mph - 0.00 in   Overcast
5:09 PM 78.1 °F - 68.0 °F 71% 30.01 in 8.0 mi South 6.9 mph - N/A   Scattered Clouds
5:54 PM 75.9 °F - 66.0 °F 71% 29.96 in 9.0 mi SE 4.6 mph - N/A   Clear
6:54 PM 75.0 °F - 66.9 °F 76% 29.94 in 8.0 mi SSW 6.9 mph - N/A   Clear
7:54 PM 73.9 °F - 68.0 °F 82% 29.95 in 8.0 mi SSW 3.5 mph - N/A   Clear
8:54 PM 71.1 °F - 68.0 °F 90% 29.96 in 8.0 mi Calm Calm - N/A   Clear
9:54 PM 68.0 °F - 66.9 °F 96% 29.99 in 6.0 mi SSW 3.5 mph - N/A   Clear
10:54 PM 69.1 °F - 68.0 °F 96% 29.99 in 6.0 mi SSW 5.8 mph - N/A   Clear
11:54 PM 66.9 °F - 66.0 °F 97% 30.01 in 5.0 mi SW 3.5 mph - N/A   Clear